Home   Weather   Trenton   Past weeks

Flag for USA Past Weather in Trenton, New Jersey, USA — Yesterday and Last 2 Weeks

Now
70 °F

Passing clouds.


Feels Like: 77 °F
Forecast: 55 / 71 °F
Wind: 6 mph from North

Location: Mercer County Airport

Current Time: Sep 24, 2016 at 5:01:57 PM

Latest Report: Sep 24, 2016 at 3:53 PM


Visibility: 10 mi

Pressure: 30.05 "Hg

Humidity: 46%

Dew Point: 48 °F

Location of TrentonLocation

Past Weather in Trenton — Graph

°F

Trenton Temperature Yesterday

Maximum temperature yesterday: 88 °F (at 4:53 PM)
Minimum temperature yesterday: 57 °F (at 3:53 AM)
Average temperature yesterday: 72 °F

High & Low Weather Summary for the Past Weeks

 TemperatureHumidityPressure
High96 °F (Sep 10, 1:53 PM)96% (Sep 18, 4:53 AM)30.31 "Hg (Sep 18, 4:53 AM)
Low52 °F (Sep 17, 6:53 AM)26% (Sep 12, 4:53 PM)29.85 "Hg (Sep 11, 3:53 AM)
Average72 °F66%30.08 "Hg
* Reported Sep 9 3:53 PM — Sep 24 3:53 PM, Trenton, Weather by CustomWeather, © 2016

Note: Actual official high and low records may vary slightly from our data, if they occured in-between our weather recording intervals... More about our weather records

Advertising

Trenton Weather History for the Previous 24 Hours

Scroll right to see more
 ConditionsComfort  
Time TempWeatherWind HumidityBarometerVisibility
3:53 PM
Sat, Sep 24
70 °FPassing clouds.6 mph46%30.05 "Hg10 mi
2:53 PM70 °FPartly sunny.N/A53%30.06 "Hg10 mi
1:53 PM67 °FOvercast.3 mph57%30.08 "Hg10 mi
12:53 PM65 °FOvercast.8 mph61%30.10 "Hg10 mi
11:53 AM63 °FOvercast.10 mph68%30.11 "Hg10 mi
10:53 AM62 °FOvercast.9 mph75%30.10 "Hg10 mi
9:53 AM59 °FMore clouds than sun.6 mph87%30.10 "Hg10 mi
9:02 AM58 °FLight rain. Fog.12 mph87%30.12 "Hg3 mi
8:53 AM59 °FLight rain. Low clouds.13 mph81%30.10 "Hg6 mi
7:53 AM60 °FOvercast.12 mph78%30.08 "Hg10 mi
6:53 AM61 °FOvercast.9 mph78%30.04 "Hg10 mi
5:53 AM62 °FPassing clouds.8 mph78%30.02 "Hg10 mi
4:53 AM62 °FPassing clouds.10 mph78%30.01 "Hg10 mi
3:53 AM64 °FPassing clouds.10 mph78%30.00 "Hg10 mi
2:53 AM69 °FClear.12 mph79%29.98 "Hg10 mi
1:53 AM71 °FPassing clouds.6 mph73%29.96 "Hg10 mi
12:53 AM70 °FMostly cloudy.3 mph76%29.95 "Hg10 mi
11:53 PM
Fri, Sep 23
70 °FPassing clouds.3 mph76%29.95 "Hg10 mi
10:53 PM72 °FClear.3 mph71%29.94 "Hg10 mi
9:53 PM72 °FClear.No wind68%29.94 "Hg10 mi
8:53 PM75 °FClear.No wind62%29.93 "Hg10 mi
7:53 PM78 °FPassing clouds.No wind54%29.92 "Hg10 mi
6:53 PM84 °FClear.No wind40%29.92 "Hg10 mi
5:53 PM87 °FSunny.No wind35%29.91 "Hg10 mi
Weather by CustomWeather, © 2016

See weather overviewHow to use our weather pages